| time (UTC) | temp C | wind direction | speed KPH | gust KPH | rain 1hr cm | rain 24hr cm | rain mn cm | humidity % | barometer mb |
| 20260904140050 | 21 | 286 | 0.0 | 6.4 | 0.00 | 0.00 | 0.00 | 89 | 1009.9 |
| 20260904134547 | 21 | 291 | 0.0 | 3.2 | 0.00 | 0.00 | 0.00 | 92 | 1009.9 |
| 20260904133042 | 20 | 293 | 0.0 | 3.2 | 0.00 | 0.00 | 0.00 | 94 | 1009.9 |
| 20260904131538 | 19 | 295 | 0.0 | 3.2 | 0.00 | 0.00 | 0.00 | 98 | 1010.1 |
| 20260904130036 | 18 | 295 | 1.6 | 4.8 | 0.00 | 0.00 | 0.00 | 99 | 1010.0 |
| 20260904124544 | 18 | 296 | 0.0 | 3.2 | 0.00 | 0.00 | 0.00 | 99 | 1010.0 |
| 20260904123033 | 18 | 297 | 0.0 | 1.6 | 0.00 | 0.00 | 0.00 | 99 | 1010.0 |
| 20260904121533 | 17 | 297 | 1.6 | 4.8 | 0.00 | 0.00 | 0.00 | 99 | 1010.0 |
| 20260904120031 | 17 | 297 | 0.0 | 1.6 | 0.00 | 0.00 | 0.00 | 99 | 1009.9 |
| 20260904114538 | 17 | 297 | 0.0 | 0.0 | 0.00 | 0.00 | 0.00 | 99 | 1009.9 |
| 20260904113039 | 17 | 297 | 0.0 | 0.0 | 0.00 | 0.00 | 0.00 | 99 | 1009.9 |
| 20260904111530 | 17 | 297 | 0.0 | 3.2 | 0.00 | 0.00 | 0.00 | 99 | 1009.9 |
| 20260904110030 | 17 | 297 | 0.0 | 3.2 | 0.00 | 0.00 | 0.00 | 99 | 1009.9 |
| 20260904104532 | 17 | 304 | 0.0 | 0.0 | 0.00 | 0.00 | 0.00 | 99 | 1009.8 |
| 20260904103036 | 17 | 130 | 0.0 | 0.0 | 0.00 | 0.00 | 0.00 | 99 | 1009.6 |
| 20260904101527 | 17 | 130 | 0.0 | 0.0 | 0.00 | 0.00 | 0.00 | 99 | 1009.4 |
| 20260904100026 | 17 | 130 | 0.0 | 0.0 | 0.00 | 0.00 | 0.00 | 99 | 1009.2 |
| 20260904094528 | 17 | 130 | 0.0 | 0.0 | 0.00 | 0.13 | 0.00 | 99 | 1009.4 |
| 20260904093024 | 17 | 130 | 0.0 | 0.0 | 0.00 | 0.13 | 0.00 | 99 | 1009.4 |
| 20260904091523 | 17 | 130 | 0.0 | 0.0 | 0.00 | 0.13 | 0.00 | 99 | 1009.4 |
| 20260904090022 | 17 | 130 | 0.0 | 0.0 | 0.00 | 0.13 | 0.00 | 99 | 1009.4 |
| 20260904084521 | 17 | 130 | 0.0 | 0.0 | 0.00 | 0.20 | 0.00 | 99 | 1009.4 |
| 20260904083020 | 17 | 130 | 0.0 | 0.0 | 0.00 | 0.20 | 0.00 | 99 | 1009.4 |
| 20260904081518 | 17 | 130 | 0.0 | 0.0 | 0.00 | 0.20 | 0.00 | 99 | 1009.6 |
| 20260904080017 | 17 | 130 | 0.0 | 0.0 | 0.00 | 0.20 | 0.00 | 99 | 1009.8 |
| 20260904074517 | 17 | 130 | 0.0 | 0.0 | 0.00 | 0.20 | 0.00 | 99 | 1009.8 |
| 20260904073015 | 17 | 130 | 0.0 | 0.0 | 0.00 | 0.20 | 0.00 | 99 | 1009.7 |
| 20260904071514 | 17 | 130 | 0.0 | 0.0 | 0.00 | 0.20 | 0.00 | 99 | 1009.7 |
| 20260904070015 | 17 | 130 | 0.0 | 0.0 | 0.00 | 0.20 | 0.00 | 99 | 1009.8 |
| 20260904064512 | 17 | 130 | 0.0 | 0.0 | 0.00 | 0.20 | 0.00 | 99 | 1009.9 |
| 20260904063011 | 17 | 130 | 0.0 | 0.0 | 0.00 | 0.20 | 0.00 | 99 | 1010.1 |
| 20260904061512 | 17 | 130 | 0.0 | 0.0 | 0.00 | 0.20 | 0.00 | 99 | 1010.1 |
| 20260904060007 | 17 | 130 | 0.0 | 0.0 | 0.00 | 0.20 | 0.00 | 99 | 1010.4 |
| 20260904054507 | 18 | 130 | 0.0 | 0.0 | 0.00 | 0.20 | 0.00 | 99 | 1010.6 |
| 20260904053005 | 18 | 130 | 0.0 | 0.0 | 0.00 | 0.20 | 0.00 | 99 | 1010.8 |
| 20260904051509 | 18 | 130 | 0.0 | 3.2 | 0.00 | 0.20 | 0.00 | 99 | 1010.9 |
| 20260904050003 | 18 | 130 | 0.0 | 3.2 | 0.00 | 0.20 | 0.00 | 99 | 1010.8 |
| 20260904044602 | 18 | 132 | 0.0 | 4.8 | 0.00 | 0.20 | 0.00 | 98 | 1010.9 |
| 20260904043119 | 18 | 168 | 0.0 | 1.6 | 0.00 | 0.20 | 0.00 | 98 | 1011.0 |
| 20260904041559 | 18 | 170 | 0.0 | 4.8 | 0.00 | 0.20 | 0.00 | 98 | 1011.2 |
| 20260904040054 | 18 | 135 | 0.0 | 6.4 | 0.00 | 0.20 | 0.00 | 98 | 1011.3 |
| 20260904034554 | 18 | 123 | 0.0 | 3.2 | 0.00 | 0.20 | 0.20 | 98 | 1011.2 |
| 20260904033054 | 18 | 92 | 0.0 | 0.0 | 0.00 | 0.20 | 0.20 | 98 | 1011.4 |
| 20260904031555 | 19 | 92 | 0.0 | 0.0 | 0.00 | 0.20 | 0.20 | 98 | 1011.2 |
| 20260904030052 | 19 | 92 | 0.0 | 0.0 | 0.00 | 0.20 | 0.20 | 98 | 1011.3 |
| 20260904024554 | 19 | 92 | 0.0 | 3.2 | 0.00 | 0.20 | 0.20 | 97 | 1011.3 |
| 20260904023054 | 19 | 87 | 0.0 | 1.6 | 0.00 | 0.20 | 0.20 | 98 | 1011.5 |
| 20260904021556 | 20 | 359 | 0.0 | 1.6 | 0.00 | 0.20 | 0.20 | 98 | 1011.6 |
| 20260904020050 | 19 | 355 | 0.0 | 0.0 | 0.00 | 0.20 | 0.20 | 97 | 1011.6 |
| 20260904014630 | 20 | 355 | 0.0 | 0.0 | 0.00 | 0.20 | 0.20 | 97 | 1011.7 |
| 20260904013056 | 20 | 355 | 0.0 | 0.0 | 0.00 | 0.20 | 0.20 | 97 | 1011.8 |
| 20260904011549 | 20 | 355 | 0.0 | 0.0 | 0.00 | 0.20 | 0.20 | 97 | 1012.0 |
| 20260904010050 | 20 | 355 | 0.0 | 0.0 | 0.00 | 0.20 | 0.20 | 96 | 1011.9 |
| 20260904004548 | 20 | 355 | 0.0 | 0.0 | 0.00 | 0.20 | 0.20 | 96 | 1011.7 |
| 20260904003050 | 20 | 355 | 0.0 | 1.6 | 0.00 | 0.20 | 0.20 | 96 | 1011.4 |
| 20260904001548 | 20 | 355 | 0.0 | 1.6 | 0.00 | 0.20 | 0.20 | 96 | 1011.2 |
| 20260904000130 | 20 | 355 | 0.0 | 1.6 | 0.00 | 0.20 | 0.20 | 95 | 1011.1 |
| 20260903234550 | 20 | 355 | 0.0 | 0.0 | 0.00 | 0.20 | 0.20 | 94 | 1011.1 |
| 20260903233046 | 21 | 355 | 0.0 | 0.0 | 0.00 | 0.20 | 0.20 | 94 | 1011.0 |
| 20260903231548 | 21 | 355 | 0.0 | 1.6 | 0.00 | 0.20 | 0.20 | 92 | 1011.1 |
| 20260903230047 | 22 | 355 | 0.0 | 0.0 | 0.00 | 0.20 | 0.20 | 90 | 1011.4 |
| 20260903224550 | 22 | 355 | 0.0 | 1.6 | 0.00 | 0.20 | 0.20 | 89 | 1011.0 |
| 20260903223040 | 22 | 340 | 0.0 | 0.0 | 0.00 | 0.20 | 0.20 | 88 | 1011.2 |
| 20260903221539 | 22 | 340 | 0.0 | 0.0 | 0.00 | 0.20 | 0.20 | 87 | 1011.7 |
| 20260903220038 | 23 | 298 | 0.0 | 0.0 | 0.00 | 0.20 | 0.20 | 87 | 1011.5 |
| 20260903214547 | 23 | 298 | 0.0 | 0.0 | 0.00 | 0.20 | 0.20 | 86 | 1011.5 |
| 20260903213039 | 23 | 298 | 0.0 | 0.0 | 0.00 | 0.20 | 0.20 | 87 | 1011.4 |
| 20260903211542 | 22 | 298 | 0.0 | 0.0 | 0.00 | 0.20 | 0.20 | 88 | 1011.6 |
| 20260903210042 | 23 | 298 | 0.0 | 3.2 | 0.00 | 0.20 | 0.20 | 85 | 1011.5 |
| 20260903204532 | 23 | 134 | 0.0 | 1.6 | 0.00 | 0.20 | 0.20 | 86 | 1011.5 |
| 20260903203037 | 22 | 134 | 0.0 | 1.6 | 0.00 | 0.20 | 0.20 | 87 | 1011.6 |
| 20260903201525 | 22 | 101 | 0.0 | 4.8 | 0.00 | 0.20 | 0.20 | 85 | 1011.6 |
| 20260903200026 | 22 | 306 | 0.0 | 1.6 | 0.00 | 0.20 | 0.20 | 87 | 1011.8 |
| 20260903194516 | 22 | 94 | 0.0 | 3.2 | 0.00 | 0.20 | 0.20 | 87 | 1012.0 |
| 20260903193013 | 21 | 99 | 0.0 | 3.2 | 0.00 | 0.20 | 0.20 | 88 | 1012.2 |
| 20260903191519 | 21 | 99 | 0.0 | 1.6 | 0.00 | 0.20 | 0.20 | 89 | 1012.3 |
| 20260903190007 | 21 | 99 | 0.0 | 3.2 | 0.00 | 0.20 | 0.20 | 89 | 1012.3 |
| 20260903184504 | 21 | 144 | 0.0 | 3.2 | 0.00 | 0.20 | 0.20 | 89 | 1012.6 |
| 20260903183006 | 21 | 299 | 0.0 | 3.2 | 0.00 | 0.20 | 0.20 | 90 | 1012.7 |
| 20260903181601 | 20 | 312 | 0.0 | 3.2 | 0.00 | 0.20 | 0.20 | 91 | 1012.8 |
| 20260903180059 | 20 | 240 | 0.0 | 3.2 | 0.00 | 0.20 | 0.20 | 91 | 1013.0 |
| 20260903174556 | 20 | 292 | 0.0 | 1.6 | 0.00 | 0.20 | 0.20 | 91 | 1013.2 |
| 20260903173056 | 20 | 296 | 0.0 | 3.2 | 0.00 | 0.20 | 0.20 | 92 | 1013.4 |
| 20260903171556 | 20 | 297 | 0.0 | 3.2 | 0.00 | 0.20 | 0.20 | 92 | 1013.2 |
| 20260903170059 | 20 | 291 | 0.0 | 3.2 | 0.00 | 0.20 | 0.20 | 93 | 1013.0 |
| 20260903164554 | 19 | 291 | 0.0 | 3.2 | 0.00 | 0.20 | 0.20 | 93 | 1013.1 |
| 20260903163102 | 19 | 274 | 0.0 | 3.2 | 0.00 | 0.20 | 0.20 | 94 | 1013.2 |
| 20260903161548 | 19 | 175 | 0.0 | 4.8 | 0.00 | 0.20 | 0.20 | 95 | 1013.2 |
| 20260903160043 | 18 | 293 | 0.0 | 3.2 | 0.00 | 0.20 | 0.20 | 95 | 1013.3 |
| 20260903154540 | 18 | 293 | 0.0 | 4.8 | 0.00 | 0.20 | 0.20 | 96 | 1013.4 |
| 20260903153037 | 18 | 293 | 0.0 | 3.2 | 0.00 | 0.20 | 0.20 | 97 | 1013.7 |
| 20260903151536 | 18 | 293 | 0.0 | 1.6 | 0.00 | 0.20 | 0.20 | 97 | 1013.7 |
| 20260903150047 | 17 | 293 | 0.0 | 1.6 | 0.00 | 0.20 | 0.20 | 97 | 1013.9 |
| 20260903144534 | 17 | 293 | 0.0 | 1.6 | 0.00 | 0.20 | 0.20 | 97 | 1014.2 |
| 20260903143036 | 17 | 293 | 0.0 | 1.6 | 0.00 | 0.20 | 0.20 | 98 | 1013.9 |